This is the latest recevied weather packets stored in our database for station/object K5OLV. If no packets are shown the sender has not sent any weather packets the latest 10 day(s).
| Time | Temp. | Humidity | Pressure | Rain* | Wind** | Luminosity | Snow |
|---|---|---|---|---|---|---|---|
| 1787964264 | 24.44° C | 81% | 1015.1 hPa | 0 mm | - | 0 W/m² | - |
| 1787963962 | 25° C | 81% | 1015 hPa | 0 mm | - | 0 W/m² | - |
| 1787963658 | 25° C | 80% | 1015 hPa | 0 mm | - | 0 W/m² | - |
| 1787963357 | 25.56° C | 79% | 1015.1 hPa | 0 mm | - | 0 W/m² | - |
| 1787963053 | 25.56° C | 77% | 1015 hPa | 0 mm | - | 0 W/m² | - |
| 1787962752 | 25.56° C | 78% | 1015 hPa | 0 mm | - | 0 W/m² | - |
| 1787962451 | 25° C | 79% | 1015 hPa | 0 mm | - | 2 W/m² | - |
| 1787962150 | 25° C | 76% | 1015.2 hPa | 0 mm | - | 3 W/m² | - |
| 1787961845 | 25° C | 76% | 1015 hPa | 0 mm | - | 4 W/m² | - |
| 1787961543 | 25° C | 81% | 1015.2 hPa | 0 mm | - | 6 W/m² | - |
| 1787961238 | 25° C | 82% | 1014.9 hPa | 0 mm | - | 7 W/m² | - |
| 1787960937 | 25° C | 83% | 1015.2 hPa | 0 mm | - | 10 W/m² | - |
| 1787960633 | 24.44° C | 83% | 1015.3 hPa | 0 mm | - | 12 W/m² | - |
| 1787960331 | 25° C | 83% | 1015 hPa | 0 mm | - | 18 W/m² | - |
| 1787960026 | 25° C | 82% | 1014.8 hPa | 0 mm | - | 20 W/m² | - |
| 1787959721 | 25.56° C | 81% | 1015.1 hPa | 0 mm | - | 25 W/m² | - |
| 1787959416 | 25.56° C | 80% | 1014.8 hPa | 0 mm | - | 31 W/m² | - |
| 1787959110 | 25.56° C | 80% | 1014.9 hPa | 0 mm | - | 36 W/m² | - |
| 1787958806 | 26.11° C | 79% | 1014.8 hPa | 0 mm | - | 37 W/m² | - |
| 1787958501 | 26.11° C | 80% | 1015 hPa | 0 mm | - | 43 W/m² | - |
| 1787958198 | 25.56° C | 80% | 1015 hPa | 0 mm | - | 54 W/m² | - |
| 1787957896 | 25.56° C | 82% | 1015 hPa | 0 mm | - | 68 W/m² | - |
| 1787957591 | 25.56° C | 83% | 1014.9 hPa | 0 mm | - | 56 W/m² | - |
| 1787957286 | 26.11° C | 83% | 1014.8 hPa | 0 mm | - | 47 W/m² | - |
| 1787956986 | 26.67° C | 82% | 1014.8 hPa | 0 mm | - | 49 W/m² | - |
* Rain latest hour (hover to see other rain measurements)
** Current wind speed in m/s (hover to see current wind gust speed)